OV1-13 R/B, 3212

Orbit data source: Space-Track

OV1-13 R/B, 3212 is space debris originally from a launch on Sat, 06 Apr 1968 UTC launched from the Air Force Western Test Range (AFWTR). Debris objects in space refer to the collection of defunct objects orbiting the Earth. Examples of debris include non-operational satellites, rocket bodies, and fragments generated from explosions, collisions, or faulty payload assembly.

Loading next visibility...
OV1-13 R/B details
Identifier
3212, 1968-026D
Orbit
Active
Last TLE update2 days ago
Origin
Flag of USUSAF OAR (US)
ManufacturerUTC
MissionSpacecraft
Bus & MotorFW4, Unknown motor
Mass125 kg wet, 125 kg dry
Launch date (UTC)
1968-04-06 (57 years ago)
Launch vehicleUnknown
Launch site
Air Force Western Test Range (AFWTR)
Object type
Payload
Rocket body
Debris
Shape & HBRCyl, 2.05 m
Radar Cross Section1.363 m², Large (>1 m²)

Expand to show TLE details & history

TLE from 2 days ago
0 OV1-13 R/B
1  3212U 68026D   24355.62104392  .00000247  00000-0  49598-3 0  9997
2  3212  99.9514 236.0410 3799403 292.8423  31.8725  7.28422017502295
Epoch: 2024-12-20T14:54Z
Definitive object data (Epoch: 2024-12-20T14:54:18.194Z)
Latitude-0.00003°
Longitude-77.21873°
Altitude2,011.253 km
Speed7.72 km/s
True Right ascension15h 44m 09s
True Declination0° 00' 00"
Sunlit
Object was in daylight at TLE epoch
Visualization TLE readout
Latitude-5.50859°
Longitude-75.7216°
Altitude1,829.226 km
Speed7.855 km/s
Apparent Right ascension16h 27m 22s
Apparent Declination-20° 48' 02"
Sunlit
Object is in daylight
Visualization observer readout
Local Sidereal Time05:29:55
Azimuth39.546° NE
Elevation-66.68°
Doppler factor1
Orbital elements
Apogee altitude9,130.965 km
Perigee altitude590.693 km
Semi-major axis11,238.966 km
Eccentricity0.3799403
Inclination99.9514°
RAAN236.041°
Arg. of periapsis292.8423°
True anomaly67.26707°
Mean anomaly31.8725°
Eccentric anomaly48.06703°
Mean motion1.8216 °/min
BSTAR0.00049598
Orbital period197.63 mins
Loading maneuver chart data...
Loading historical data...
Loading historical data...
Loading historical data...
Loading historical data...
Loading historical data...
Loading historical data...
Loading historical data...
Other satellites on launch #26 in the year 1968 (1968-04-06 UTC)

OV1-13 R/B Visibility forecast

Observer location: undefined°, undefined

Span
Click to sort rows by Start time (UTC) header in descending order
Start Az.
Max El. time (UTC)
Max El. Az.
Max El.
End time (UTC)
End Az.
81 mins2024-12-22 07:14:10.731Z17.574° NNE2024-12-22 07:57:10.731Z323.642° NNW35.452°2024-12-22 08:35:10.731Z264.581° W
61 mins2024-12-22 10:18:10.731Z36.567° NE2024-12-22 10:44:10.731Z356.67° N24.885°2024-12-22 11:19:10.731Z316.429° NNW
59 mins2024-12-22 13:14:10.731Z91.874° ESE2024-12-22 13:34:10.731Z31.83° NE33.117°2024-12-22 14:13:10.731Z341.432° N
56 mins2024-12-22 16:24:10.731Z175.72° S2024-12-22 16:37:10.731Z259.436° W44.171°2024-12-22 17:20:10.731Z348.504° N
30 mins2024-12-22 19:54:10.731Z285.328° WNW2024-12-22 20:05:10.731Z311.433° NW14.332°2024-12-22 20:24:10.731Z341.269° N
52 mins2024-12-23 00:09:10.731Z21.114° NNE2024-12-23 00:39:10.731Z56.561° ENE14.965°2024-12-23 01:01:10.731Z88.642° E
86 mins2024-12-23 03:12:10.731Z12.017° NNE2024-12-23 04:08:10.731Z101.447° ESE42.798°2024-12-23 04:38:10.731Z180.531° SSW
|